TimeHST,TemperatureF,Dew PointF,Humidity,Sea Level PressureIn,VisibilityMPH,Wind Direction,Wind SpeedMPH,Gust SpeedMPH,PrecipitationIn,Events,Conditions,WindDirDegrees,DateUTC
12:53 AM,75.9,61.0,60,29.98,10.0,North,6.9,-,N/A,,Scattered Clouds,10,2014-05-12 10:53:00
1:53 AM,73.9,61.0,64,29.96,10.0,NNE,5.8,-,N/A,,Partly Cloudy,30,2014-05-12 11:53:00
2:53 AM,73.9,60.1,62,29.94,10.0,NW,8.1,-,N/A,,Scattered Clouds,310,2014-05-12 12:53:00
3:53 AM,71.6,64.4,78,29.95,10.0,ENE,5.8,-,N/A,,Clear,70,2014-05-12 13:53:00
4:53 AM,71.1,63.0,75,29.96,10.0,NE,3.5,-,N/A,,Clear,40,2014-05-12 14:53:00
5:53 AM,71.1,61.0,70,29.96,10.0,ENE,3.5,-,N/A,,Scattered Clouds,70,2014-05-12 15:53:00
6:53 AM,73.9,63.0,68,29.98,10.0,NNE,5.8,-,N/A,,Overcast,30,2014-05-12 16:53:00
7:53 AM,80.1,63.0,56,29.99,10.0,NNE,4.6,-,N/A,,Clear,20,2014-05-12 17:53:00
8:53 AM,82.0,63.0,52,30.00,10.0,NW,5.8,-,N/A,,Clear,310,2014-05-12 18:53:00
9:53 AM,82.0,66.0,58,30.00,10.0,Variable,6.9,-,N/A,,Clear,0,2014-05-12 19:53:00
10:53 AM,81.0,66.9,62,29.98,10.0,WSW,8.1,-,N/A,,Clear,240,2014-05-12 20:53:00
11:53 AM,82.9,66.0,56,29.97,10.0,SSW,10.4,-,N/A,,Mostly Cloudy,210,2014-05-12 21:53:00
12:53 PM,82.9,66.0,56,29.96,10.0,South,10.4,-,N/A,,Scattered Clouds,190,2014-05-12 22:53:00
1:53 PM,82.0,66.9,60,29.94,10.0,South,12.7,-,N/A,,Overcast,180,2014-05-12 23:53:00
2:53 PM,82.9,66.9,58,29.92,10.0,South,11.5,-,N/A,,Mostly Cloudy,190,2014-05-13 00:53:00
3:53 PM,82.0,66.0,58,29.91,10.0,SSW,10.4,-,N/A,,Mostly Cloudy,200,2014-05-13 01:53:00
4:53 PM,80.1,68.0,67,29.91,10.0,South,8.1,-,N/A,,Overcast,180,2014-05-13 02:53:00
5:53 PM,79.0,68.0,69,29.91,10.0,Calm,Calm,-,N/A,,Overcast,0,2014-05-13 03:53:00
6:53 PM,78.1,68.0,71,29.92,10.0,South,4.6,-,0.00,,Scattered Clouds,190,2014-05-13 04:53:00
7:53 PM,78.1,69.1,74,29.93,10.0,SE,8.1,-,N/A,,Overcast,140,2014-05-13 05:53:00
8:53 PM,77.0,68.0,74,29.95,10.0,East,4.6,-,N/A,,Overcast,100,2014-05-13 06:53:00
9:02 PM,77.0,68.0,74,29.95,10.0,NE,5.8,-,N/A,,Overcast,40,2014-05-13 07:02:00
9:53 PM,77.0,68.0,74,29.96,10.0,NNE,5.8,-,N/A,,Overcast,20,2014-05-13 07:53:00
10:53 PM,75.9,68.0,76,29.95,10.0,ENE,3.5,-,N/A,,Mostly Cloudy,70,2014-05-13 08:53:00
11:53 PM,75.9,66.9,74,29.93,10.0,SE,3.5,-,N/A,,Clear,130,2014-05-13 09:53:00